Location: Dampvalley
(47.9094°N, 6.1967°E)
Time: 20:53:49
(UTC+00:00)

Iridium 4 Rocket - Pass Details

Date: 05 March 2021
Orbit: 585 x 903 km, 86.9° (Epoch: 20 April)

Event Time Altitude Azimuth Distance (km) Brightness Sun altitude
Exits shadow 03:21:56 38° 4° (N) 1,014 4.3 -28.1°
Drops below altitude 10° 03:24:39 10° 3° (N) 2,037 6.0 -27.7°
Sets 03:26:48 0° 4° (N) 2,914 6.9 -27.4°
